| time (UTC) | temp F | wind direction | speed MPH | gust MPH | rain 1hr in | rain 24hr in | rain mn in | humidity % | barometer mb |
| 20260509040044 | 62 | 338 | 21.0 | 33.0 | 0.00 | 0.01 | 0.01 | 42 | 1011.2 |
| 20260509034543 | 63 | 327 | 22.0 | 32.0 | 0.00 | 0.01 | 0.01 | 40 | 1011.0 |
| 20260509033038 | 64 | 325 | 20.0 | 32.0 | 0.00 | 0.01 | 0.01 | 39 | 1011.0 |
| 20260509031537 | 64 | 345 | 19.0 | 28.0 | 0.00 | 0.01 | 0.01 | 38 | 1010.5 |
| 20260509030042 | 63 | 315 | 15.0 | 22.0 | 0.00 | 0.01 | 0.01 | 39 | 1010.5 |
| 20260509024542 | 63 | 292 | 2.0 | 6.0 | 0.00 | 0.01 | 0.01 | 39 | 1010.4 |
| 20260509023041 | 63 | 311 | 2.0 | 6.0 | 0.00 | 0.01 | 0.01 | 39 | 1010.2 |
| 20260509021538 | 65 | 342 | 6.0 | 8.0 | 0.00 | 0.01 | 0.01 | 36 | 1009.9 |
| 20260509020043 | 66 | 344 | 5.0 | 6.0 | 0.00 | 0.01 | 0.01 | 35 | 1009.7 |
| 20260509014542 | 66 | 290 | 5.0 | 9.0 | 0.00 | 0.02 | 0.01 | 34 | 1009.7 |
| 20260509013042 | 67 | 323 | 7.0 | 13.0 | 0.00 | 0.02 | 0.01 | 34 | 1009.7 |
| 20260509011538 | 67 | 347 | 13.0 | 19.0 | 0.00 | 0.02 | 0.01 | 31 | 1009.6 |
| 20260509010037 | 68 | 328 | 13.0 | 18.0 | 0.00 | 0.02 | 0.01 | 30 | 1009.7 |
| 20260509004538 | 68 | 330 | 15.0 | 23.0 | 0.00 | 0.03 | 0.01 | 31 | 1009.9 |
| 20260509003040 | 68 | 346 | 15.0 | 23.0 | 0.00 | 0.03 | 0.01 | 30 | 1009.9 |
| 20260509001542 | 69 | 348 | 16.0 | 29.0 | 0.00 | 0.03 | 0.01 | 29 | 1009.9 |
| 20260509000040 | 69 | 328 | 20.0 | 29.0 | 0.00 | 0.03 | 0.01 | 29 | 1009.9 |
| 20260508234537 | 69 | 306 | 16.0 | 26.0 | 0.00 | 0.10 | 0.01 | 28 | 1010.0 |
| 20260508233035 | 70 | 305 | 13.0 | 25.0 | 0.00 | 0.10 | 0.01 | 27 | 1010.3 |
| 20260508231604 | 70 | 310 | 13.0 | 26.0 | 0.00 | 0.10 | 0.01 | 27 | 1010.1 |
| 20260508230054 | 71 | 338 | 12.0 | 26.0 | 0.00 | 0.10 | 0.01 | 26 | 1010.0 |
| 20260508224542 | 72 | 266 | 16.0 | 30.0 | 0.00 | 0.10 | 0.01 | 24 | 1010.2 |
| 20260508223042 | 71 | 297 | 14.0 | 25.0 | 0.00 | 0.10 | 0.01 | 23 | 1010.1 |
| 20260508221536 | 70 | 340 | 21.0 | 29.0 | 0.00 | 0.10 | 0.01 | 24 | 1010.1 |
| 20260508220044 | 70 | 327 | 16.0 | 30.0 | 0.00 | 0.10 | 0.01 | 26 | 1010.4 |
| 20260508214554 | 70 | 299 | 9.0 | 27.0 | 0.00 | 0.14 | 0.01 | 24 | 1010.4 |
| 20260508213048 | 70 | 310 | 14.0 | 26.0 | 0.00 | 0.14 | 0.01 | 27 | 1010.6 |
| 20260508211542 | 69 | 322 | 21.0 | 32.0 | 0.00 | 0.14 | 0.01 | 29 | 1011.0 |
| 20260508210052 | 69 | 320 | 18.0 | 26.0 | 0.00 | 0.14 | 0.01 | 29 | 1011.1 |
| 20260508204545 | 70 | 335 | 7.0 | 23.0 | 0.00 | 0.14 | 0.01 | 31 | 1011.2 |
| 20260508203041 | 69 | 301 | 11.0 | 25.0 | 0.00 | 0.14 | 0.01 | 32 | 1011.3 |
| 20260508201547 | 69 | 315 | 12.0 | 24.0 | 0.00 | 0.14 | 0.01 | 32 | 1011.3 |
| 20260508200044 | 68 | 324 | 12.0 | 23.0 | 0.00 | 0.14 | 0.01 | 33 | 1011.4 |
| 20260508194534 | 69 | 326 | 13.0 | 23.0 | 0.00 | 0.14 | 0.01 | 34 | 1011.5 |
| 20260508193051 | 68 | 195 | 7.0 | 18.0 | 0.00 | 0.14 | 0.01 | 36 | 1011.6 |
| 20260508191543 | 67 | 340 | 12.0 | 27.0 | 0.00 | 0.14 | 0.01 | 36 | 1011.8 |
| 20260508190042 | 67 | 210 | 9.0 | 20.0 | 0.00 | 0.14 | 0.01 | 39 | 1011.8 |
| 20260508184540 | 67 | 319 | 11.0 | 19.0 | 0.00 | 0.14 | 0.01 | 37 | 1011.9 |
| 20260508183035 | 67 | 293 | 10.0 | 21.0 | 0.00 | 0.14 | 0.01 | 38 | 1012.1 |
| 20260508181537 | 67 | 308 | 8.0 | 22.0 | 0.00 | 0.14 | 0.01 | 38 | 1012.2 |
| 20260508180043 | 66 | 306 | 9.0 | 20.0 | 0.00 | 0.14 | 0.01 | 42 | 1012.4 |
| 20260508174542 | 65 | 246 | 9.0 | 20.0 | 0.00 | 0.14 | 0.01 | 40 | 1012.5 |
| 20260508173039 | 65 | 263 | 11.0 | 21.0 | 0.00 | 0.14 | 0.01 | 42 | 1012.8 |
| 20260508171542 | 65 | 234 | 8.0 | 19.0 | 0.00 | 0.14 | 0.01 | 46 | 1013.0 |
| 20260508170044 | 64 | 285 | 8.0 | 20.0 | 0.00 | 0.14 | 0.01 | 46 | 1013.1 |
| 20260508164544 | 63 | 224 | 8.0 | 18.0 | 0.00 | 0.14 | 0.01 | 48 | 1013.3 |
| 20260508163042 | 62 | 252 | 7.0 | 16.0 | 0.00 | 0.14 | 0.01 | 53 | 1013.4 |
| 20260508161543 | 62 | 276 | 8.0 | 17.0 | 0.00 | 0.14 | 0.01 | 53 | 1013.6 |
| 20260508160037 | 60 | 279 | 5.0 | 15.0 | 0.00 | 0.14 | 0.01 | 59 | 1013.7 |
| 20260508154533 | 58 | 250 | 5.0 | 12.0 | 0.00 | 0.14 | 0.01 | 61 | 1013.9 |
| 20260508153043 | 57 | 298 | 4.0 | 11.0 | 0.00 | 0.14 | 0.01 | 65 | 1014.2 |
| 20260508151542 | 55 | 311 | 3.0 | 14.0 | 0.00 | 0.14 | 0.01 | 68 | 1014.4 |
| 20260508150040 | 53 | 70 | 1.0 | 4.0 | 0.00 | 0.14 | 0.01 | 73 | 1014.6 |
| 20260508144537 | 51 | 0 | 0.0 | 3.0 | 0.00 | 0.14 | 0.01 | 76 | 1014.7 |
| 20260508143046 | 48 | 334 | 4.0 | 7.0 | 0.00 | 0.14 | 0.01 | 78 | 1014.9 |
| 20260508141540 | 48 | 11 | 1.0 | 2.0 | 0.00 | 0.14 | 0.01 | 79 | 1015.0 |
| 20260508140043 | 46 | 77 | 2.0 | 3.0 | 0.00 | 0.14 | 0.01 | 85 | 1015.2 |
| 20260508134542 | 44 | 79 | 1.0 | 3.0 | 0.00 | 0.14 | 0.01 | 86 | 1015.2 |
| 20260508133037 | 42 | 86 | 2.0 | 4.0 | 0.00 | 0.14 | 0.01 | 88 | 1015.3 |
| 20260508131539 | 41 | 91 | 1.0 | 3.0 | 0.00 | 0.14 | 0.01 | 89 | 1015.2 |
| 20260508130043 | 41 | 88 | 0.0 | 3.0 | 0.00 | 0.14 | 0.01 | 89 | 1015.1 |
| 20260508124535 | 41 | 76 | 1.0 | 2.0 | 0.00 | 0.14 | 0.01 | 90 | 1015.0 |
| 20260508123040 | 39 | 122 | 1.0 | 4.0 | 0.00 | 0.14 | 0.01 | 90 | 1014.9 |
| 20260508121542 | 39 | 120 | 2.0 | 3.0 | 0.00 | 0.14 | 0.01 | 90 | 1014.7 |
| 20260508120040 | 39 | 107 | 1.0 | 4.0 | 0.00 | 0.14 | 0.01 | 89 | 1014.6 |
| 20260508114551 | 41 | 122 | 0.0 | 4.0 | 0.00 | 0.14 | 0.01 | 89 | 1014.6 |
| 20260508113044 | 42 | 89 | 0.0 | 2.0 | 0.00 | 0.14 | 0.01 | 89 | 1014.6 |
| 20260508111557 | 42 | 0 | 0.0 | 1.0 | 0.00 | 0.14 | 0.01 | 90 | 1014.7 |
| 20260508110036 | 43 | 0 | 0.0 | 3.0 | 0.00 | 0.14 | 0.01 | 89 | 1014.6 |
| 20260508104536 | 41 | 0 | 0.0 | 2.0 | 0.00 | 0.14 | 0.01 | 91 | 1014.7 |
| 20260508103045 | 41 | 286 | 0.0 | 1.0 | 0.00 | 0.14 | 0.01 | 89 | 1014.7 |
| 20260508101542 | 42 | 275 | 1.0 | 3.0 | 0.00 | 0.14 | 0.01 | 89 | 1014.6 |
| 20260508100041 | 42 | 0 | 1.0 | 5.0 | 0.00 | 0.14 | 0.01 | 88 | 1014.6 |
| 20260508094537 | 42 | 281 | 2.0 | 5.0 | 0.00 | 0.14 | 0.01 | 90 | 1014.6 |
| 20260508093036 | 41 | 334 | 0.0 | 3.0 | 0.01 | 0.14 | 0.01 | 91 | 1014.6 |
| 20260508091544 | 41 | 0 | 0.0 | 4.0 | 0.01 | 0.14 | 0.01 | 91 | 1014.7 |
| 20260508090045 | 40 | 230 | 0.0 | 2.0 | 0.01 | 0.14 | 0.01 | 91 | 1014.8 |
| 20260508084542 | 40 | 127 | 3.0 | 5.0 | 0.01 | 0.14 | 0.01 | 91 | 1014.7 |
| 20260508083047 | 40 | 76 | 0.0 | 3.0 | 0.00 | 0.13 | 0.00 | 91 | 1014.8 |
| 20260508081546 | 41 | 209 | 0.0 | 3.0 | 0.00 | 0.13 | 0.00 | 92 | 1014.7 |
| 20260508080035 | 41 | 90 | 1.0 | 2.0 | 0.00 | 0.13 | 0.00 | 91 | 1014.9 |
| 20260508074538 | 41 | 0 | 0.0 | 2.0 | 0.00 | 0.14 | 0.00 | 91 | 1015.0 |
| 20260508073048 | 40 | 0 | 0.0 | 1.0 | 0.00 | 0.14 | 0.00 | 91 | 1015.0 |
| 20260508071538 | 41 | 291 | 1.0 | 5.0 | 0.00 | 0.14 | 0.00 | 88 | 1014.9 |
| 20260508070047 | 41 | 267 | 2.0 | 5.0 | 0.00 | 0.14 | 0.00 | 89 | 1015.0 |
| 20260508064543 | 42 | 317 | 3.0 | 8.0 | 0.00 | 0.15 | 0.00 | 88 | 1015.0 |
| 20260508063044 | 41 | 234 | 2.0 | 5.0 | 0.00 | 0.15 | 0.00 | 90 | 1015.0 |
| 20260508061541 | 42 | 0 | 0.0 | 6.0 | 0.00 | 0.15 | 0.00 | 89 | 1014.9 |
| 20260508060042 | 43 | 271 | 5.0 | 8.0 | 0.00 | 0.15 | 0.00 | 89 | 1014.9 |
| 20260508054543 | 43 | 233 | 3.0 | 5.0 | 0.00 | 0.15 | 0.15 | 89 | 1014.7 |
| 20260508053035 | 43 | 271 | 0.0 | 5.0 | 0.00 | 0.15 | 0.15 | 89 | 1014.7 |
| 20260508051538 | 44 | 263 | 1.0 | 5.0 | 0.00 | 0.15 | 0.15 | 88 | 1014.8 |
| 20260508050045 | 44 | 230 | 3.0 | 8.0 | 0.00 | 0.15 | 0.15 | 89 | 1014.7 |
| 20260508044539 | 45 | 247 | 4.0 | 6.0 | 0.00 | 0.15 | 0.15 | 90 | 1014.9 |
| 20260508043050 | 45 | 0 | 0.0 | 1.0 | 0.00 | 0.15 | 0.15 | 91 | 1015.0 |
| 20260508041543 | 46 | 0 | 0.0 | 2.0 | 0.00 | 0.15 | 0.15 | 89 | 1015.0 |